monikazywko
1 1 25

Technical difficulty   Moderate

Coordinates 69

Uploaded November 26, 2013

Recorded November 2013

-
-
832 f
637 f
0
0.7
1.5
2.91 mi

Viewed 216 times, downloaded 0 times

near Dąbie, Województwo małopolskie (Rzeczpospolita Polska)

Tue Nov 05 13:09:05 2013 S=0.34 Km/hr
Tue Nov 05 13:10:41 2013 S=23.83 Km/hr
Tue Nov 05 13:10:47 2013 S=37.29 Km/hr
Tue Nov 05 13:10:52 2013 S=40.86 Km/hr
Tue Nov 05 13:10:57 2013 S=42.02 Km/hr
Tue Nov 05 13:11:01 2013 S=51.05 Km/hr
Tue Nov 05 13:11:05 2013 S=48.75 Km/hr
Tue Nov 05 13:11:09 2013 S=48.75 Km/hr
Tue Nov 05 13:11:14 2013 S=34.19 Km/hr
Tue Nov 05 13:11:20 2013 S=34.70 Km/hr
Tue Nov 05 13:11:26 2013 S=33.78 Km/hr
Tue Nov 05 13:11:56 2013 S=16.27 Km/hr
Tue Nov 05 13:12:02 2013 S=33.78 Km/hr
Tue Nov 05 13:12:09 2013 S=23.11 Km/hr
Tue Nov 05 13:12:18 2013 S=26.08 Km/hr
Tue Nov 05 13:12:24 2013 S=36.01 Km/hr
Tue Nov 05 13:12:29 2013 S=35.48 Km/hr
Tue Nov 05 13:12:35 2013 S=34.84 Km/hr
Tue Nov 05 13:12:40 2013 S=36.54 Km/hr
Tue Nov 05 13:12:45 2013 S=31.77 Km/hr
Tue Nov 05 13:12:53 2013 S=11.84 Km/hr
Tue Nov 05 13:13:32 2013 S=29.48 Km/hr
Tue Nov 05 13:13:37 2013 S=35.90 Km/hr
Tue Nov 05 13:13:42 2013 S=39.11 Km/hr
Tue Nov 05 13:13:47 2013 S=36.77 Km/hr

Comments

    You can or this trail